Regional Weather Roundup
Issued by NWS Cleveland, OH

Home | Current Version | Previous Version | Graphics & Text | Print | Product List | Glossary On
Versions: 1 2 3 4 5 6 7 8 9 10 11 12 13 14 15 16 17 18 19 20 21 22 23 24 25 26 27 28 29 30 31 32 33 34 35 36 37 38 39 40 41 42 43 44 45 46 47 48 49 50
000
ASUS41 KCLE 110400
RWRCLE
OHIO REGIONAL WEATHER ROUNDUP
NATIONAL WEATHER SERVICE WILMINGTON, OH
1100 PM EST SAT DEC 10 2016

NOTE: "FAIR" INDICATES FEW OR NO CLOUDS BELOW 12,000 FEET WITH NO
SIGNIFICANT WEATHER AND/OR OBSTRUCTIONS TO VISIBILITY.

OHZ001>008-015>018-024>027-034-035-043-044-110500-
   NORTHWEST OHIO

CITY           SKY/WX    TMP DP  RH WIND       PRES   REMARKS
DEFIANCE       LGT SNOW  24  19  81 S5        30.40S WCI  18
FINDLAY        LGT SNOW  24  19  81 S6        30.39F WCI  17
TOLEDO EXPRESS CLOUDY    24  18  77 S7        30.40F WCI  16
TOLEDO EXEC    CLOUDY    25  18  74 S7        30.41F WCI  17
LIMA           LGT SNOW  23  22  96 S6        30.38F FOG     WCI  16
$$

OHZ009>014-019>023-028>033-038-089-110500-
   NORTHEAST OHIO

CITY           SKY/WX    TMP DP  RH WIND       PRES   REMARKS
CLE-HOPKINS    CLOUDY    26  15  63 S8        30.44S WCI  18
CLE-LAKEFRONT  FAIR      26  16  65 S10       30.42S WCI  16
CUY CO. ARPT   CLOUDY    25  18  74 S10       30.41S WCI  15
LORAIN-ELYRIA  CLOUDY    24  16  71 SW6       30.42S WCI  17
ASHTABULA      CLOUDY    23  14  68 SW10      30.40S WCI  12
AKRON-CANTON   CLOUDY    24  15  68 S8        30.40S WCI  15
WOOSTER        NOT AVBL
MANSFIELD      CLOUDY    23  16  74 SW6       30.39S WCI  16
YOUNGSTOWN     FLURRIES  24  15  68 SW5       30.40F WCI  18
$$

OHZ042-051>053-060>062-070>072-077>081-110500-
  SOUTHWEST OHIO

CITY           SKY/WX    TMP DP  RH WIND       PRES   REMARKS
CINC-COVINGTON CLOUDY    28  18  66 S7        30.38F WCI  21
CINC-LUNKEN    FAIR      29  20  69 SW3       30.43F
HAMILTON       MOCLDY    30  18  60 CALM      30.41F
DAYTON         NOT AVBL
WRIGHT-PAT AFB NOT AVBL
DAYTON GENERAL MOCLDY    27  18  69 SE5       30.37F WCI  22
WILMINGTON     FAIR      26  18  71 SE5       30.38F WCI  20
$$

OHZ036-037-039>041-045>050-054>059-063>069-073>076-082>088-110500-
  CENTRAL AND SOUTHEAST OHIO

CITY           SKY/WX    TMP DP  RH WIND       PRES   REMARKS
COLUMBUS       CLOUDY    26  18  71 CALM      30.43S
OSU AIRPORT    CLOUDY    26  17  68 S3        30.41F
BOLTON FIELD   NOT AVBL
RICKENBACK AFB NOT AVBL
NEWARK         MOCLDY    22  17  81 CALM      30.43R
MARION         CLOUDY    25  18  74 SW6       30.41S HAZE    WCI  18
LANCASTER      MOCLDY    25  20  81 CALM      30.44R
ZANESVILLE     FAIR      24  16  71 CALM      30.43R
NEW PHILLY     FAIR      24  18  77 CALM      30.44S
$$




USA.gov is the U.S. government's official web portal to all federal, state and local government web resources and services.